#timestamp,LO_Frequency,Hit,StdDev 
1509465615.2,286047002.6,N
1509465635.1,286046999.9,N
1509465636.0,286046999.9,N
1509465655.8,286047000.5,N
1509465675.6,286047000.7,N
1509465695.5,286047000.8,N
1509465715.3,286046999.1,N
1509465735.1,286046999.2,N
1509465755.9,286046997.5,N
1509465775.7,286046995.6,Y
1509465795.6,286046995.6,P
1509465815.4,286046993.4,N
1509465835.2,286046996.8,N
1509465855.1,286046996.9,N
1509465856.0,286046996.9,N
1509465875.8,286046996.7,N
1509465895.6,286046997.8,N
1509465915.5,286046996.7,N
1509465935.3,286046997.1,N
1509465955.2,286046997.6,N
1509465975.9,286046998.8,N
1509465995.7,286047000.6,N
1509466015.6,286047001.1,N
1509466035.4,286046999.4,N
1509466055.3,286046996.5,N
1509466075.1,286046997.7,N
1509466076.0,286046997.7,N
1509466095.8,286046997.5,N
1509466115.7,286046999.0,N
1509466135.5,286046999.7,N
1509466155.3,286047001.2,N
1509466175.2,286046998.6,N
1509466195.0,286046999.6,N
1509466195.9,286046999.6,N
1509466215.8,286046998.9,N
1509466235.6,286047000.7,N
1509466255.4,286047001.1,N
1509466275.3,286046998.3,N
1509466295.1,286046996.6,N
1509466296.0,286046996.6,N
1509466315.8,286046998.6,N
1509466335.7,286047001.2,N
1509466355.5,286047000.7,N
1509466375.3,286047001.2,N
1509466395.2,286047000.9,N
1509466415.0,286047001.2,N
1509466415.9,286047001.2,N
1509466435.8,286046998.7,N
1509466455.6,286046999.1,N
1509466475.4,286046999.6,N
1509466495.3,286046996.6,N
1509466515.1,286046999.6,N
1509466535.8,286047001.2,N
1509466555.7,286046999.5,N
1509466575.5,286046999.1,N
1509466595.4,286046998.6,N
1509466615.2,286046998.3,N
1509466635.0,286047001.2,N
1509466635.9,286047001.2,N
1509466655.8,286047000.8,N
1509466675.6,286047000.2,N
1509466695.4,286047002.8,N
1509466715.3,286047000.3,N
1509466735.1,286047000.6,N
1509466755.9,286046998.8,N
1509466775.7,286046998.2,N
1509466795.5,286047000.7,N
1509466815.4,286046999.4,N
1509466835.2,286046999.6,N
1509466855.1,286046999.5,N
1509466856.0,286046999.5,N
1509466875.8,286046998.1,N
1509466895.6,286046999.2,N
1509466915.5,286047001.2,N
1509466935.3,286047000.2,N
1509466955.1,286047001.2,N
1509466975.9,286047001.2,N
1509466995.7,286046999.4,N
1509467015.6,286046999.2,N
1509467035.4,286046998.6,N
1509467055.2,286046998.7,N
1509467075.1,286046998.4,N
1509467076.0,286046998.4,N
1509467095.8,286047001.2,N
1509467115.6,286046998.7,N
1509467135.5,286046997.1,N
1509467155.3,286046996.9,N
1509467175.2,286046999.4,N
1509467195.9,286047000.8,N
1509467215.7,286046998.6,N
1509467235.6,286046998.1,N
1509467255.4,286046996.6,N
1509467275.2,286046998.4,N
1509467295.1,286047000.1,N
1509467296.0,286047000.1,N
1509467315.8,286047001.0,N
1509467335.7,286047000.0,N
1509467355.5,286046998.6,N
1509467375.3,286046999.4,N
1509467395.2,286046996.5,N
1509467415.0,286046998.4,N
1509467415.9,286046998.4,N
1509467435.7,286047001.2,N
1509467455.6,286046998.3,N
1509467475.4,286046999.5,N
1509467495.3,286046998.3,N
1509467515.1,286046999.1,N
1509467516.0,286046999.1,N
1509467535.8,286047000.0,N
1509467555.7,286046998.1,N
1509467575.5,286047000.7,N
1509467595.4,286046999.0,N
1509467615.2,286046998.1,N
1509467635.0,286046998.1,N
1509467635.9,286046998.1,N
1509467655.8,286046998.5,N
1509467675.6,286047000.3,N
1509467695.4,286047000.5,N
1509467715.3,286046999.9,N
1509467735.1,286047002.7,N
1509467755.9,286047004.4,Y
1509467775.7,286047003.9,P
1509467795.5,286046999.9,N
1509467815.4,286047000.1,N
1509467835.2,286047000.0,N
1509467855.1,286046999.8,N
1509467856.0,286046999.8,N
1509467875.8,286046999.7,N
1509467895.6,286047000.1,N
1509467915.5,286047000.2,N
1509467935.3,286047002.5,N
1509467955.2,286047001.5,N
1509467975.9,286047002.5,N
1509467995.7,286047002.0,N
1509468015.6,286047004.4,Y
1509468035.4,286046999.7,P
1509468055.3,286047001.6,N
1509468075.1,286047002.3,N
1509468076.0,286047002.3,N
1509468095.8,286047000.9,N
1509468115.7,286047001.1,N
1509468135.5,286047000.9,N
1509468155.3,286046998.1,N
1509468175.2,286047002.5,N
1509468195.0,286047002.2,N
1509468195.9,286047002.2,N
1509468215.8,286047000.6,N
1509468235.6,286046998.2,N
1509468255.4,286047000.9,N
1509468275.3,286047002.6,N
1509468295.1,286047004.1,N
1509468315.8,286047004.3,N
1509468335.7,286047003.8,N
1509468355.5,286047003.2,N
1509468375.4,286047001.8,N
1509468395.2,286047001.5,N
1509468415.0,286047001.3,N
1509468415.9,286047001.3,N
1509468435.8,286047003.7,N
1509468455.6,286047003.6,N
1509468475.4,286047004.2,N
1509468495.3,286047001.8,N
1509468515.1,286047001.5,N
1509468535.9,286047004.2,N
1509468555.7,286047001.5,N
1509468575.5,286047001.7,N
1509468595.4,286047001.9,N
1509468615.2,286047002.0,N
1509468635.0,286047002.0,N
1509468635.9,286047002.0,N
1509468655.8,286047001.8,N
1509468675.6,286047002.0,N
1509468695.5,286047001.5,N
1509468715.3,286047002.4,N
1509468735.1,286047001.5,N
1509468755.9,286047001.3,N
1509468775.7,286047001.5,N
1509468795.5,286047003.5,N
1509468815.4,286047004.4,Y
1509468835.2,286047002.3,P
1509468855.1,286047002.1,P
1509468856.0,286047002.1,P
1509468875.8,286047002.4,Y
1509468895.6,286046999.0,P
1509468915.5,286046996.6,N
1509468935.3,286046997.1,N
1509468955.1,286046999.4,N
1509468975.9,286046998.0,N
1509468995.7,286046999.3,N
1509469015.6,286046994.9,N
1509469035.4,286046997.4,N
1509469055.2,286046997.2,N
1509469075.1,286046997.3,N
1509469076.0,286046997.3,N
1509469095.8,286046997.9,N
1509469115.6,286046995.4,N
1509469135.5,286046996.6,N
1509469155.3,286046997.3,N
1509469175.2,286046997.2,N
1509469195.9,286046999.1,N
